TimeEST,TemperatureF,Dew PointF,Humidity,Sea Level PressureIn,VisibilityMPH,Wind Direction,Wind SpeedMPH,Gust SpeedMPH,PrecipitationIn,Events,Conditions,WindDirDegrees,DateUTC
12:15 AM,37.4,33.8,87,30.38,10.0,North,3.5,-,N/A,,Clear,10,2012-11-15 05:15:00
12:35 AM,37.4,33.8,87,30.38,10.0,North,3.5,-,N/A,,Clear,360,2012-11-15 05:35:00
12:55 AM,37.4,33.8,87,30.37,10.0,Calm,Calm,-,N/A,,Scattered Clouds,0,2012-11-15 05:55:00
1:15 AM,37.4,35.6,93,30.37,10.0,Calm,Calm,-,N/A,,Scattered Clouds,0,2012-11-15 06:15:00
1:35 AM,37.4,35.6,93,30.36,10.0,Calm,Calm,-,N/A,,Clear,0,2012-11-15 06:35:00
1:55 AM,37.4,35.6,93,30.36,10.0,Calm,Calm,-,N/A,,Clear,0,2012-11-15 06:55:00
2:15 AM,37.4,35.6,93,30.36,10.0,NW,3.5,-,N/A,,Scattered Clouds,310,2012-11-15 07:15:00
2:35 AM,37.4,35.6,93,30.35,10.0,Calm,Calm,-,N/A,,Mostly Cloudy,0,2012-11-15 07:35:00
2:55 AM,39.2,35.6,87,30.34,10.0,Calm,Calm,-,N/A,,Overcast,0,2012-11-15 07:55:00
3:15 AM,39.2,35.6,87,30.33,10.0,North,5.8,-,N/A,,Overcast,360,2012-11-15 08:15:00
3:35 AM,39.2,35.6,87,30.31,10.0,North,5.8,-,N/A,,Mostly Cloudy,360,2012-11-15 08:35:00
3:55 AM,39.2,35.6,87,30.30,10.0,NNE,3.5,-,N/A,,Clear,20,2012-11-15 08:55:00
4:15 AM,39.2,35.6,87,30.30,10.0,Calm,Calm,-,N/A,,Clear,0,2012-11-15 09:15:00
4:35 AM,41.0,35.6,81,30.31,10.0,NW,3.5,-,N/A,,Scattered Clouds,310,2012-11-15 09:35:00
4:55 AM,41.0,35.6,81,30.31,10.0,Calm,Calm,-,N/A,,Overcast,0,2012-11-15 09:55:00
5:15 AM,41.0,35.6,81,30.32,10.0,NW,3.5,-,N/A,,Mostly Cloudy,310,2012-11-15 10:15:00
5:35 AM,42.8,37.4,81,30.32,10.0,Calm,Calm,-,N/A,,Overcast,0,2012-11-15 10:35:00
5:55 AM,42.8,37.4,81,30.32,10.0,North,4.6,-,N/A,,Overcast,360,2012-11-15 10:55:00
6:15 AM,42.8,37.4,81,30.31,10.0,North,4.6,-,N/A,,Overcast,350,2012-11-15 11:15:00
6:35 AM,41.0,37.4,87,30.31,10.0,NNW,3.5,-,N/A,,Mostly Cloudy,340,2012-11-15 11:35:00
6:55 AM,41.0,37.4,87,30.31,10.0,NNW,6.9,-,N/A,,Scattered Clouds,340,2012-11-15 11:55:00
7:15 AM,42.8,37.4,81,30.32,10.0,North,5.8,-,N/A,,Scattered Clouds,350,2012-11-15 12:15:00
7:35 AM,42.8,37.4,81,30.33,10.0,North,5.8,-,N/A,,Mostly Cloudy,350,2012-11-15 12:35:00
7:55 AM,42.8,37.4,81,30.33,10.0,North,4.6,-,N/A,,Overcast,350,2012-11-15 12:55:00
8:15 AM,42.8,39.2,87,30.32,10.0,North,5.8,-,N/A,,Overcast,360,2012-11-15 13:15:00
8:35 AM,44.6,39.2,81,30.32,10.0,North,5.8,-,N/A,,Overcast,360,2012-11-15 13:35:00
8:55 AM,44.6,39.2,81,30.32,10.0,NNE,4.6,-,N/A,,Overcast,20,2012-11-15 13:55:00
9:15 AM,46.4,41.0,81,30.33,10.0,North,5.8,-,N/A,,Overcast,350,2012-11-15 14:15:00
9:35 AM,48.2,41.0,76,30.33,10.0,NNE,6.9,-,N/A,,Overcast,20,2012-11-15 14:35:00
9:55 AM,48.2,42.8,82,30.33,10.0,NNE,8.1,-,N/A,,Overcast,30,2012-11-15 14:55:00
10:15 AM,51.8,42.8,71,30.33,10.0,North,8.1,-,N/A,,Overcast,10,2012-11-15 15:15:00
10:35 AM,51.8,44.6,76,30.32,10.0,NNE,5.8,-,N/A,,Overcast,30,2012-11-15 15:35:00
10:55 AM,53.6,44.6,72,30.31,10.0,NNE,6.9,-,N/A,,Overcast,30,2012-11-15 15:55:00
11:15 AM,53.6,44.6,72,30.30,10.0,NE,6.9,-,N/A,,Overcast,50,2012-11-15 16:15:00
11:35 AM,53.6,44.6,72,30.30,10.0,NE,8.1,-,N/A,,Overcast,50,2012-11-15 16:35:00
11:55 AM,53.6,44.6,72,30.29,10.0,NE,9.2,-,N/A,,Overcast,40,2012-11-15 16:55:00
12:15 PM,53.6,44.6,72,30.28,10.0,North,6.9,-,N/A,,Overcast,10,2012-11-15 17:15:00
12:35 PM,55.4,46.4,72,30.28,10.0,NNE,6.9,10.4,N/A,,Overcast,30,2012-11-15 17:35:00
12:55 PM,53.6,44.6,72,30.27,10.0,NNE,8.1,-,N/A,,Overcast,30,2012-11-15 17:55:00
1:15 PM,55.4,46.4,72,30.26,10.0,NNE,5.8,-,N/A,,Overcast,30,2012-11-15 18:15:00
1:35 PM,53.6,44.6,72,30.27,10.0,NNE,9.2,-,N/A,,Overcast,30,2012-11-15 18:35:00
1:55 PM,53.6,44.6,72,30.27,10.0,NE,6.9,-,N/A,,Overcast,40,2012-11-15 18:55:00
2:15 PM,53.6,44.6,72,30.27,10.0,NE,8.1,-,N/A,,Overcast,40,2012-11-15 19:15:00
2:35 PM,53.6,44.6,72,30.27,10.0,NNE,6.9,-,N/A,,Overcast,30,2012-11-15 19:35:00
2:55 PM,53.6,44.6,72,30.27,10.0,NE,6.9,-,N/A,,Overcast,40,2012-11-15 19:55:00
3:15 PM,53.6,44.6,72,30.27,10.0,NNE,6.9,-,N/A,,Overcast,30,2012-11-15 20:15:00
3:35 PM,53.6,44.6,72,30.28,10.0,NNE,6.9,-,N/A,,Overcast,30,2012-11-15 20:35:00
3:55 PM,53.6,44.6,72,30.28,10.0,NNE,3.5,-,N/A,,Overcast,30,2012-11-15 20:55:00
4:15 PM,51.8,44.6,76,30.28,10.0,NE,4.6,-,N/A,,Overcast,40,2012-11-15 21:15:00
4:35 PM,51.8,44.6,76,30.27,10.0,NNE,4.6,-,N/A,,Overcast,30,2012-11-15 21:35:00
4:55 PM,51.8,42.8,71,30.26,10.0,NNE,5.8,-,N/A,,Overcast,30,2012-11-15 21:55:00
5:15 PM,51.8,42.8,71,30.26,10.0,NNE,5.8,-,N/A,,Overcast,30,2012-11-15 22:15:00
5:35 PM,51.8,42.8,71,30.26,10.0,NE,5.8,-,N/A,,Overcast,40,2012-11-15 22:35:00
5:55 PM,51.8,42.8,71,30.27,10.0,NNE,3.5,-,N/A,,Overcast,30,2012-11-15 22:55:00
6:15 PM,50.0,42.8,76,30.27,10.0,North,3.5,-,N/A,,Scattered Clouds,10,2012-11-15 23:15:00
6:35 PM,50.0,42.8,76,30.26,10.0,NNE,4.6,-,N/A,,Mostly Cloudy,30,2012-11-15 23:35:00
6:55 PM,50.0,44.6,82,30.26,10.0,NNE,3.5,-,N/A,,Overcast,30,2012-11-15 23:55:00
7:15 PM,48.2,44.6,87,30.26,10.0,Calm,Calm,-,N/A,,Overcast,0,2012-11-16 00:15:00
7:35 PM,48.2,44.6,87,30.26,10.0,NE,4.6,-,N/A,,Overcast,40,2012-11-16 00:35:00
7:55 PM,48.2,44.6,87,30.27,10.0,Calm,Calm,-,N/A,,Overcast,0,2012-11-16 00:55:00
8:15 PM,48.2,44.6,87,30.28,7.0,Calm,Calm,-,N/A,,Overcast,0,2012-11-16 01:15:00
8:35 PM,46.4,46.4,100,30.27,7.0,NNE,3.5,-,N/A,,Overcast,20,2012-11-16 01:35:00
8:55 PM,46.4,46.4,100,30.28,7.0,North,3.5,-,N/A,,Overcast,10,2012-11-16 01:55:00
9:15 PM,46.4,46.4,100,30.27,7.0,NNE,4.6,-,N/A,,Overcast,20,2012-11-16 02:15:00
9:35 PM,46.4,46.4,100,30.27,7.0,NNE,5.8,-,N/A,,Overcast,30,2012-11-16 02:35:00
9:55 PM,46.4,46.4,100,30.26,7.0,NNE,3.5,-,N/A,,Overcast,30,2012-11-16 02:55:00
10:15 PM,46.4,46.4,100,30.27,7.0,NNE,3.5,-,N/A,,Overcast,30,2012-11-16 03:15:00
10:35 PM,46.4,46.4,100,30.28,7.0,Calm,Calm,-,N/A,,Overcast,0,2012-11-16 03:35:00
10:55 PM,46.4,46.4,100,30.28,10.0,NNW,4.6,-,N/A,,Overcast,340,2012-11-16 03:55:00
11:15 PM,46.4,46.4,100,30.27,10.0,North,5.8,-,N/A,,Mostly Cloudy,10,2012-11-16 04:15:00
11:35 PM,46.4,46.4,100,30.27,10.0,West,4.6,-,N/A,,Mostly Cloudy,280,2012-11-16 04:35:00
11:55 PM,46.4,46.4,100,30.26,10.0,North,4.6,-,N/A,,Mostly Cloudy,10,2012-11-16 04:55:00